This demonstration page uses our WeatherBlox Daily Observations layout. Learn more.

Left ArrowRight Arrow

Hourly Observations for October 8, 2016

Temp ( °F °C ) Dew Point ( °F °C ) Humidity (%) Winds ( mph kmh ) Pressure ( in mb ) Visibility ( mi km ) Precip ( " mm )
12:46 am 00:46 Partly Cloudy 32 0 32 0 100 100 E 8 13 30.15 1021 10 16 0.00 0.00
12:53 am 00:53 Mostly Cloudy 32 0 32 0 100 100 E 8 13 30.13 1020 10 16 0.00 0.00
1:44 am 01:44 Partly Cloudy 30 -1 30 -1 100 100 ENE 5 7 30.18 1022 10 16 0.00 0.00
1:53 am 01:53 Mostly Clear 31 -0.6 30 -1.1 96 96 ENE 6 9 30.15 1021 10 16 0.00 0.00
2:19 am 02:19 Mostly Cloudy 31 -0.6 30 -1.1 96 96 ENE 5 7 30.18 1022 10 16 0.00 0.00
2:31 am 02:31 Cloudy 32 0 31 -0.6 96 96 E 3 6 30.21 1023 10 16 0.00 0.00
2:53 am 02:53 Cloudy 32 0 31 -0.6 96 96 E 5 7 30.17 1022 10 16 0.00 0.00
3:08 am 03:08 Cloudy 32 0 30 -1 93 93 E 3 6 30.21 1023 10 16 0.00 0.00
3:53 am 03:53 Cloudy 32 0 32 0 100 100 Calm 30.19 1022 10 16 0.00 0.00
4:24 am 04:24 Cloudy 30 -1 30 -1 100 100 Calm 30.21 1023 10 16 0.00 0.00
4:48 am 04:48 Cloudy with Mist and Fog 30 -1 30 -1 100 100 Calm 30.21 1023 2 3 0.00 0.00
4:53 am 04:53 Cloudy with Mist and Fog 32 0 31 -0.6 96 96 Calm 30.20 1023 1 2 0.00 0.00
4:59 am 04:59 Cloudy with Mist and Fog 32 0 31 -0.6 96 96 Calm 30.21 1023 2 3 0.00 0.00
5:10 am 05:10 Cloudy with Mist and Fog 32 0 30 -1 93 93 ENE 3 6 30.21 1023 2 2 0.00 0.00
5:17 am 05:17 Mostly Cloudy with Mist and Fog 32 0 31 -0.6 96 96 Calm 30.21 1023 1 1 0.00 0.00
5:53 am 05:53 Mostly Cloudy with Fog 32 0 32 0 100 100 Calm 30.21 1023 0 0 0.00 0.00
6:45 am 06:45 Mostly Cloudy with Freezing Fog 31 -0.6 31 -0.6 100 100 Calm 30.24 1024 1 1 0.00 0.00
6:53 am 06:53 Mostly Cloudy with Freezing Fog 31 -0.6 31 -0.6 100 100 ENE 3 6 30.22 1024 1 1 0.00 0.00
7:05 am 07:05 Mostly Cloudy with Freezing Fog 30 -1 30 -1 100 100 Calm 30.27 1025 0 0 0.00 0.00
7:13 am 07:13 Mostly Cloudy with Freezing Fog 31 -0.6 31 -0.6 100 100 E 3 6 30.24 1024 1 1 0.00 0.00
7:29 am 07:29 Mostly Cloudy with Freezing Fog 30 -1 30 -1 100 100 E 3 6 30.27 1025 0 0 0.00 0.00
7:53 am 07:53 Mostly Cloudy with Freezing Fog 31 -0.6 30 -1.1 96 96 E 7 11 30.23 1024 0 0 0.00 0.00
8:50 am 08:50 Mostly Cloudy with Freezing Fog 30 -1 30 -1 100 100 E 8 13 30.27 1025 1 1 0.00 0.00
8:53 am 08:53 Mostly Cloudy with Freezing Fog 30 -1.1 30 -1.1 100 100 ENE 7 11 30.23 1024 1 1 0.00 0.00
9:04 am 09:04 Mostly Cloudy with Freezing Fog 30 -1 30 -1 100 100 ENE 7 11 30.27 1025 0 0 0.00 0.00
9:53 am 09:53 Mostly Cloudy with Fog 32 0 32 0 100 100 ENE 7 11 30.24 1024 0 0 0.00 0.00
10:23 am 10:23 Mostly Cloudy with Mist and Fog 32 0 32 0 100 100 E 9 15 30.27 1025 1 2 0.00 0.00
10:40 am 10:40 Cloudy with Mist and Fog 34 1 34 1 100 100 E 10 17 30.27 1025 2 3 0.00 0.00
10:51 am 10:51 Cloudy with Mist and Fog 34 1 34 1 100 100 ENE 12 19 30.24 1024 5 8 0.00 0.00
10:53 am 10:53 Cloudy 34 1 34 1 100 100 ENE 12 19 30.24 1024 7 11 0.00 0.00
11:53 am 11:53 Cloudy 36 2.2 35 1.7 97 97 ENE 13 20 30.21 1023 10 16 0.00 0.00
12:34 pm 12:34 Cloudy 37 3 36 2 93 93 ENE 12 19 30.18 1022 10 16 0.00 0.00
12:46 pm 12:46 Cloudy 38 3.3 36 2.2 93 93 ENE 13 20 30.18 1022 10 16 0.00 0.00
12:53 pm 12:53 Cloudy 38 3.3 36 2.2 93 93 ENE 13 20 30.19 1023 10 16 0.00 0.00
1:01 pm 13:01 Cloudy 39 3.9 36 2.2 89 89 ENE 14 22 30.18 1022 10 16 0.00 0.00
1:46 pm 13:46 Cloudy 41 5 37 3 87 87 ENE 14 22 30.12 1020 10 16 0.00 0.00
1:53 pm 13:53 Cloudy 41 5 38 3.3 89 89 ENE 14 22 30.16 1022 10 16 0.00 0.00
2:10 pm 14:10 Cloudy 43 6 39 4 87 87 ENE 14 22 30.12 1020 10 16 0.00 0.00
2:25 pm 14:25 Cloudy 42 5.6 39 3.9 89 89 ENE 13 20 30.12 1020 10 16 0.00 0.00
2:53 pm 14:53 Cloudy 43 6.1 39 3.9 86 86 ENE 16 26 30.14 1021 10 16 0.00 0.00
3:53 pm 15:53 Mostly Cloudy 46 7.8 41 5 83 83 ENE 14 22 30.10 1019 10 16 0.00 0.00
4:53 pm 16:53 Mostly Cloudy 51 10.6 44 6.7 77 77 ENE 14 22 30.05 1018 10 16 0.00 0.00
5:53 pm 17:53 Sunny 51 10.6 44 6.7 77 77 ENE 15 24 30.01 1016 10 16 0.00 0.00
6:53 pm 18:53 Clear 48 8.9 42 5.6 80 80 ENE 13 20 30.00 1016 10 16 0.00 0.00
7:53 pm 19:53 Clear 46 7.8 42 5.6 86 86 ENE 6 9 29.99 1016 10 16 0.00 0.00
8:53 pm 20:53 Clear 43 6.1 41 5 93 93 E 5 7 29.97 1015 10 16 0.00 0.00
9:53 pm 21:53 Clear 40 4.4 39 3.9 97 97 Calm 29.95 1014 10 16 0.00 0.00
10:53 pm 22:53 Clear 40 4.4 40 4.4 100 100 ESE 5 7 29.91 1013 10 16 0.00 0.00
11:53 pm 23:53 Clear 41 5 40 4.4 96 96 ENE 5 7 29.89 1012 10 16 0.00 0.00

Powered by AerisWeather